This is the latest recevied weather packets stored in our database for station/object AE5TC. If no packets are shown the sender has not sent any weather packets the latest 10 day(s).
| Time | Temp. | Humidity | Pressure | Rain* | Wind** | Luminosity | Snow |
|---|---|---|---|---|---|---|---|
| 1777785620 | 13.89° C | 83% | 1016.6 hPa | 0 mm | - | 0 W/m² | - |
| 1777785315 | 14.44° C | 83% | 1016.4 hPa | 0 mm | - | 0 W/m² | - |
| 1777785013 | 14.44° C | 82% | 1016.3 hPa | 0 mm | - | 0 W/m² | - |
| 1777784709 | 14.44° C | 82% | 1016.1 hPa | 0 mm | - | 0 W/m² | - |
| 1777784407 | 14.44° C | 82% | 1016.1 hPa | 0 mm | - | 0 W/m² | - |
| 1777784104 | 15° C | 82% | 1016 hPa | 0 mm | - | 0 W/m² | - |
| 1777783801 | 15° C | 82% | 1015.8 hPa | 0 mm | - | 0 W/m² | - |
| 1777783497 | 15° C | 82% | 1015.9 hPa | 0 mm | - | 0 W/m² | - |
| 1777783195 | 15° C | 82% | 1015.8 hPa | 0 mm | - | 0 W/m² | - |
| 1777782891 | 15° C | 83% | 1015.8 hPa | 0 mm | - | 0 W/m² | - |
| 1777782587 | 15° C | 83% | 1015.8 hPa | 0 mm | - | 0 W/m² | - |
| 1777782284 | 15° C | 84% | 1015.6 hPa | 0 mm | - | 0 W/m² | - |
| 1777781981 | 15.56° C | 84% | 1015.6 hPa | 0 mm | - | 0 W/m² | - |
| 1777781677 | 15.56° C | 84% | 1015.6 hPa | 0 mm | - | 0 W/m² | - |
| 1777781375 | 15.56° C | 85% | 1015.5 hPa | 0 mm | - | 0 W/m² | - |
| 1777781072 | 15° C | 86% | 1015.5 hPa | 0 mm | - | 0 W/m² | - |
| 1777780770 | 15.56° C | 87% | 1015.4 hPa | 0 mm | - | 0 W/m² | - |
| 1777780466 | 15.56° C | 86% | 1015.4 hPa | 0 mm | - | 0 W/m² | - |
| 1777780164 | 15.56° C | 86% | 1015.4 hPa | 0 mm | - | 0 W/m² | - |
| 1777779861 | 16.11° C | 85% | 1015.5 hPa | 0 mm | - | 0 W/m² | - |
| 1777779558 | 16.11° C | 85% | 1015.2 hPa | 0 mm | - | 0 W/m² | - |
| 1777779255 | 16.11° C | 85% | 1015.1 hPa | 0 mm | - | 0 W/m² | - |
| 1777778954 | 15.56° C | 87% | 1015 hPa | 0 mm | - | 0 W/m² | - |
| 1777778652 | 14.44° C | 93% | 1015.2 hPa | 0 mm | - | 0 W/m² | - |
| 1777778349 | 13.89° C | 99% | 1015.2 hPa | 0 mm | - | 0 W/m² | - |
* Rain latest hour (hover to see other rain measurements)
** Current wind speed in m/s (hover to see current wind gust speed)